[[{"header":{"parameterUnit":"m.s-1","parameterCategory":1,"la1":30.2991,"la2":30.254,"lo1":-89.0895,"lo2":-89.0444,"dy":0.0017,"dx":0.0017,"nx":28,"ny":28,"refTime":"2025-04-03T21:00:00:Z","depth":0,"parameterNumber":2,"parameterNumberName":"U-component_of_WINDS"},"data":[0,0,0,0,0,0,0,0,0,0,0,0,0,0,0,0,0,0,0,0,0,0,0,0,0,0,0,0,0,0,0,0,0,0,0,0,0,0,0,0,0,0,0,0,0,0,0,0,0,0,0,0,0,0,0,0,0,0,-3.9193,-3.9194,0,-3.9322,-3.9323,-3.9325,-3.9353,-3.9352,-3.9351,-3.935,-3.9483,-3.9487,-3.9492,0,0,0,0,0,0,0,0,0,0,0,0,0,-3.8973,-3.8976,-3.9193,-3.9194,-3.9196,-3.9321,-3.9323,-3.9325,-3.9353,-3.9352,-3.9351,-3.935,-3.9482,-3.9487,-3.9492,0,0,0,0,0,0,0,0,0,0,0,0,0,-3.9081,-3.8978,-3.9192,-3.9225,-3.9229,-3.9321,-3.9323,-3.9325,-3.9353,-3.9352,-3.935,-3.9349,-3.948,-3.9486,-3.9493,-3.9561,0,0,-3.9513,-3.9516,0,0,0,0,0,0,0,0,-3.9075,-3.909,-3.9219,-3.9223,-3.9228,-3.932,-3.9294,-3.9405,-3.9354,-3.9306,-3.935,-3.9348,-3.943,-3.944,-3.9468,-3.9568,-3.9573,-3.9514,-3.9518,-3.952,-3.9522,0,0,0,0,0,0,0,-3.9068,-3.9084,-3.9244,-3.9221,-3.9226,-3.9234,-3.9248,-3.9315,-3.9374,-3.931,-3.9313,-3.9327,-3.9432,-3.9461,-3.9471,-3.9575,-3.9513,-3.9519,-3.9523,-3.9526,-3.9738,-3.9739,0,0,0,0,0,0,-3.9054,-3.9078,-3.924,-3.9248,-3.9147,-3.9239,-3.9254,-3.9292,-3.9374,-3.9385,-3.9328,-3.9328,-3.9451,-3.9463,-3.9476,-3.9561,-3.952,-3.9526,-3.953,-3.9736,-3.9738,-3.974,0,0,0,0,0,0,-3.9049,-3.9068,-3.9234,-3.9163,-3.9185,-3.9244,-3.9286,-3.9295,-3.9324,-3.9387,-3.9398,-3.9347,-3.945,-3.9467,-3.954,-3.9566,-3.9529,-3.9535,-3.9734,-3.9737,-3.9739,-3.9731,0,0,0,0,0,0,-3.9043,-3.9066,-3.9093,-3.9164,-3.9189,-3.9296,-3.9287,-3.9298,-3.9335,-3.9336,-3.9408,-3.9418,-3.945,-3.953,-3.9546,-3.9574,-3.9541,-3.9732,-3.9735,-3.9738,-3.973,-3.9733,-3.9737,0,0,0,0,0,-3.9035,-3.9086,-3.9094,-3.9113,-3.9223,-3.9297,-3.9312,-3.9347,-3.9337,-3.9364,-3.9405,-3.9416,-3.9561,-3.9537,-3.9556,-3.9586,-3.973,-3.9734,-3.9738,-3.9728,-3.9733,-3.9737,0,0,0,0,0,0,-3.9017,-3.9096,-3.9105,-3.9181,-3.9232,-3.9302,-3.9337,-3.9351,-3.9406,-3.9404,-3.9446,-3.9462,-3.9533,-3.9567,-3.9539,-3.9657,-3.9645,-3.9653,-3.9631,-3.9636,-3.964,-3.9629,-3.9546,0,0,0,0,0,-3.9022,-3.9075,-3.9141,-3.9201,-3.9227,-3.9277,-3.9311,-3.9334,-3.9389,-3.941,-3.9457,-3.951,-3.9567,-3.9604,-3.966,-3.9736,-3.9751,-3.9766,-3.9769,-3.9772,-3.9777,-3.9819,-3.9826,-3.9752,-3.9752,-3.9752,0,0,-3.9032,-3.9082,-3.9113,-3.9199,-3.9241,-3.9296,-3.9295,-3.9353,-3.9394,-3.9419,-3.9491,-3.9527,-3.9589,-3.9663,-3.9698,-3.9694,-3.9802,-3.9777,-3.9778,-3.9783,-3.9824,-3.9831,-3.9837,-3.9755,-3.9754,-3.9754,0,0,-3.9078,-3.9121,-3.9176,-3.9218,-3.9282,-3.9316,-3.9329,-3.9397,-3.9421,-3.9494,-3.9514,-3.9564,-3.9662,-3.9705,-3.974,-3.9803,-3.9815,-3.982,-3.9838,-3.9878,-3.9884,-3.9889,-3.9911,-3.9918,-3.9826,-3.9826,-3.9826,0,-3.9083,-3.9165,-3.9202,-3.9259,-3.9296,-3.9322,-3.9377,-3.9417,-3.9496,-3.9521,-3.9516,-3.9639,-3.9683,-3.9767,-3.9782,-3.981,-3.9826,-3.9811,-3.988,-3.9886,-3.9891,-3.9912,-3.992,-3.9826,-3.9826,-3.9826,-3.9826,0,-3.9167,-3.9224,-3.926,-3.9335,-3.9377,-3.9433,-3.9479,-3.9517,-3.9536,-3.957,-3.9644,-3.9697,-3.9765,-3.9787,-3.9807,-3.9874,-3.9869,-3.9872,-3.986,-3.9898,-3.9918,-3.9926,-3.9826,-3.9826,-3.9826,-3.9826,0,0,-3.9204,-3.9299,-3.9312,-3.9346,-3.9419,-3.9464,-3.9521,-3.9586,-3.9617,-3.9672,-3.9721,-3.9803,-3.9806,-3.9845,-3.9871,-3.9906,-3.9951,-3.9904,-3.9906,-3.991,-4.0028,-4.0024,-4.0033,-3.9961,-3.9962,-3.9964,-4.0022,0,-3.9258,-3.936,-3.9395,-3.948,-3.9532,-3.9558,-3.9608,-3.9658,-3.9692,-3.9742,-3.978,-3.9837,-3.9837,-3.9861,-3.9897,-3.9938,-3.9975,-3.9935,-4.0006,-4.0008,-3.9987,-4.0044,-4.0041,-4.0093,-4.003,-4.0032,-4.0033,0,-3.9334,-3.9388,-3.9478,-3.9544,-3.9567,-3.9611,-3.9674,-3.9722,-3.9779,-3.9802,-3.9846,-3.9869,-3.993,-3.9916,-4.0001,-3.9972,-4.0004,-4.0029,-4.0031,-4.0038,-4.0021,-4.0051,-4.0111,-4.0118,-4.0046,-4.0045,-4.0044,0,-3.935,-3.9446,-3.9512,-3.9541,-3.9619,-3.965,-3.9684,-3.974,-3.9777,-3.9833,-3.9857,-3.9919,-3.9953,-4.0,-4.0039,-4.0026,-4.012,-4.011,-4.014,-4.0139,-4.0157,-4.0155,-4.0221,-4.018,-4.018,-4.018,-4.018,0,-3.9406,-3.9459,-3.952,-3.956,-3.9621,-3.9662,-3.9721,-3.9757,-3.9807,-3.9855,-3.9882,-3.9926,-3.9975,-4.0027,-4.0058,-4.0123,-4.0138,-4.0157,-4.0165,-4.0154,-4.0151,-4.0174,-4.0171,-4.0182,-4.0181,-4.0181,-4.0181,0,-3.9434,-3.9477,-3.955,-3.9618,-3.9637,-3.9678,-3.9737,-3.9777,-3.9813,-3.9873,-3.989,-3.9945,-4.0006,-4.0051,-4.013,-4.0151,-4.022,-4.0228,-4.02,-4.0204,-4.023,-4.0226,-4.0312,-4.0325,-4.0276,-4.0277,-4.0277,0,-3.9466,-3.9507,-3.958,-3.9613,-3.9647,-3.9702,-3.9739,-3.9781,-3.982,-3.9888,-3.992,-3.9984,-4.0036,-4.0133,-4.0181,-4.0242,-4.0251,-4.0277,-4.026,-4.0248,-4.025,-4.0246,-4.025,-4.0279,-4.0279,-4.0279,-4.0279,0,-3.9517,-3.9536,-3.9589,-3.965,-3.9694,-3.9744,-3.9794,-3.982,-3.9871,-3.9913,-3.9976,-4.0017,-4.0098,-4.016,-4.0226,-4.0262,-4.0279,-4.0285,-4.0294,-4.0283,-4.0264,-4.0273,-4.0205,-4.0282,-4.0282,-4.0282,-4.0281,-4.0281,-3.9547,-3.9585,-3.9642,-3.97,-3.9742,-3.9788,-3.9829,-3.9869,-3.9922,-3.999,-4.0013,-4.0077,-4.0135,-4.0224,-4.0261,-4.0313,-4.0312,-4.0326,-4.033,-4.0332,-4.0331,-4.0257,-4.0325,-4.0325,-4.0325,-4.0325,-4.0325,0,-3.9599,-3.9637,-3.969,-3.9759,-3.9804,-3.9817,-3.9873,-3.9911,-3.9967,-4.0019,-4.007,-4.0142,-4.0202,-4.0255,-4.0318,-4.0349,-4.0359,-4.0364,-4.0362,-4.0369,-4.0329,-4.0314,-4.0355,-4.0355,-4.0355,-4.0355,-4.0355,-4.0355,-3.9631,-3.9695,-3.9721,-3.9806,-3.9844,-3.9907,-3.9938,-3.9981,-4.0022,-4.0101,-4.0151,-4.0185,-4.0237,-4.0304,-4.036,-4.0375,-4.0396,-4.0399,-4.0415,-4.0376,-4.0372,-4.0369,-4.0354,-4.0404,-4.0404,-4.0451,-4.0451,-4.0451]},{"header":{"parameterUnit":"m.s-1","parameterCategory":1,"la1":30.2991,"la2":30.254,"lo1":-89.0895,"lo2":-89.0444,"dy":0.0017,"dx":0.0017,"nx":28,"ny":28,"refTime":"2025-04-03T21:00:00:Z","depth":0,"parameterNumber":3,"parameterNumberName":"V-component_of_WINDS"},"data":[0,0,0,0,0,0,0,0,0,0,0,0,0,0,0,0,0,0,0,0,0,0,0,0,0,0,0,0,0,0,0,0,0,0,0,0,0,0,0,0,0,0,0,0,0,0,0,0,0,0,0,0,0,0,0,0,0,0,5.8264,5.8265,0,5.8384,5.8385,5.8387,5.8369,5.8367,5.8365,5.8363,5.8487,5.8492,5.8497,0,0,0,0,0,0,0,0,0,0,0,0,0,5.8022,5.8027,5.8264,5.8265,5.8267,5.8384,5.8385,5.8387,5.837,5.8367,5.8365,5.8363,5.8485,5.8491,5.8497,0,0,0,0,0,0,0,0,0,0,0,0,0,5.8133,5.8028,5.8264,5.8272,5.8274,5.8383,5.8385,5.8387,5.837,5.8367,5.8364,5.8361,5.8483,5.8491,5.8498,5.8606,0,0,5.8522,5.8525,0,0,0,0,0,0,0,0,5.8127,5.8142,5.827,5.8272,5.8274,5.8359,5.8345,5.8461,5.8371,5.8334,5.8363,5.836,5.8447,5.8457,5.8486,5.8612,5.8617,5.8523,5.8527,5.8531,5.8533,0,0,0,0,0,0,0,5.8119,5.8137,5.8311,5.8271,5.8274,5.8271,5.8283,5.8367,5.8406,5.8337,5.8336,5.835,5.8447,5.8479,5.8489,5.8619,5.8522,5.8529,5.8534,5.8537,5.8843,5.8846,0,0,0,0,0,0,5.8109,5.813,5.8307,5.8315,5.8192,5.8278,5.8292,5.8335,5.8405,5.8413,5.8353,5.8349,5.8467,5.848,5.8493,5.8627,5.8531,5.8538,5.8542,5.8839,5.8844,5.8847,0,0,0,0,0,0,5.8104,5.8125,5.8303,5.8223,5.8245,5.8285,5.8333,5.8339,5.837,5.8417,5.8424,5.8378,5.8465,5.8482,5.8579,5.8631,5.8541,5.8548,5.8835,5.8841,5.8846,5.8893,0,0,0,0,0,0,5.8097,5.8123,5.8164,5.8224,5.8249,5.8386,5.8337,5.8343,5.8383,5.838,5.8442,5.8449,5.8464,5.8568,5.8587,5.864,5.8554,5.8831,5.8838,5.8844,5.8887,5.8899,5.8909,0,0,0,0,0,5.8088,5.8172,5.8166,5.8187,5.8301,5.8389,5.8403,5.8419,5.8387,5.843,5.846,5.8448,5.8622,5.8578,5.8599,5.8655,5.8828,5.8836,5.8843,5.8882,5.8896,5.8909,0,0,0,0,0,0,5.8117,5.818,5.8174,5.8279,5.8329,5.8386,5.8439,5.8433,5.8493,5.8487,5.8503,5.8518,5.8616,5.8645,5.8595,5.8765,5.8721,5.8733,5.8742,5.8757,5.8768,5.8759,5.8561,0,0,0,0,0,5.8135,5.8201,5.8252,5.834,5.8366,5.8398,5.8437,5.8444,5.8497,5.8517,5.8555,5.8606,5.8673,5.8716,5.878,5.8891,5.8905,5.894,5.8951,5.896,5.8971,5.9035,5.9051,5.8873,5.8873,5.8873,0,0,5.8174,5.8217,5.8257,5.8347,5.8387,5.8455,5.8416,5.8489,5.8541,5.8529,5.8623,5.8652,5.8711,5.8816,5.8864,5.8843,5.9024,5.897,5.8977,5.8983,5.9044,5.9061,5.9076,5.8879,5.8878,5.8877,0,0,5.8281,5.8319,5.8397,5.8438,5.8498,5.852,5.8539,5.8597,5.8616,5.8711,5.8704,5.8766,5.8879,5.8922,5.8959,5.9084,5.9076,5.9104,5.9164,5.9225,5.9239,5.9252,5.9299,5.9315,5.9115,5.9115,5.9115,0,5.8322,5.8424,5.8438,5.8514,5.8555,5.8547,5.8628,5.8667,5.8745,5.8774,5.8749,5.8893,5.8932,5.9048,5.9079,5.9108,5.9132,5.9098,5.9236,5.9249,5.9261,5.9306,5.9323,5.9118,5.9118,5.9118,5.9117,0,5.8473,5.8544,5.8601,5.8677,5.8724,5.8801,5.8829,5.8875,5.8879,5.8903,5.9001,5.9047,5.9122,5.9149,5.9153,5.9267,5.9253,5.9232,5.9188,5.9281,5.9323,5.934,5.9123,5.9122,5.9121,5.912,0,0,5.86,5.8685,5.8705,5.8741,5.8808,5.8864,5.8942,5.9014,5.9055,5.9109,5.9176,5.9274,5.9256,5.9298,5.9307,5.9361,5.946,5.9334,5.9335,5.9357,5.9591,5.9607,5.9627,5.9455,5.9458,5.946,5.9587,0,5.8715,5.8852,5.8868,5.8991,5.9059,5.9054,5.9122,5.9171,5.9197,5.9258,5.9286,5.9356,5.9326,5.9351,5.9404,5.9437,5.9507,5.9427,5.9519,5.9522,5.9506,5.9648,5.9665,5.9782,5.9603,5.9606,5.9608,0,5.8866,5.8926,5.9056,5.9116,5.9145,5.9206,5.9275,5.9333,5.939,5.9405,5.9452,5.9455,5.9538,5.949,5.9605,5.955,5.9588,5.961,5.9615,5.9625,5.9571,5.9664,5.9819,5.9838,5.9634,5.9632,5.963,0,5.8949,5.9061,5.9155,5.9185,5.9256,5.93,5.9332,5.9385,5.9429,5.9489,5.9518,5.9587,5.9626,5.968,5.9702,5.9665,5.9817,5.977,5.9833,5.9833,5.9866,5.9864,6.0031,5.9888,5.9888,5.9887,5.9887,0,5.9076,5.9156,5.9193,5.925,5.9341,5.9359,5.9448,5.9478,5.9526,5.9591,5.959,5.965,5.9675,5.974,5.9758,5.9852,5.9869,5.9884,5.9888,5.9885,5.9884,5.9911,5.9905,5.9892,5.9891,5.989,5.9889,0,5.9183,5.9211,5.9313,5.9372,5.9389,5.9454,5.9505,5.9562,5.9587,5.9668,5.9688,5.9728,5.9805,5.9832,5.9925,5.9937,6.0046,6.0043,6.0028,6.0029,6.0091,6.0085,6.0283,6.0311,6.0148,6.0149,6.0151,0,5.9263,5.9325,5.9392,5.9435,5.9469,5.9538,5.9583,5.9603,5.965,5.972,5.9769,5.9845,5.9907,6.003,6.0068,6.0139,6.0139,6.0203,6.0149,6.0145,6.0142,6.0139,6.0146,6.0213,6.0215,6.0217,6.0218,0,5.9403,5.9414,5.9479,5.9549,5.9602,5.9658,5.9713,5.9748,5.9777,5.983,5.9909,5.9957,6.0053,6.0129,6.0203,6.0237,6.0233,6.0234,6.0253,6.0251,6.0241,6.025,6.0057,6.023,6.0229,6.0228,6.0227,6.0227,5.9501,5.9557,5.9613,5.9686,5.9729,5.978,5.9837,5.9869,5.9935,6.0014,6.0023,6.0108,6.0165,6.0264,6.0301,6.0369,6.0351,6.0378,6.0385,6.0392,6.0397,6.0229,6.0382,6.0382,6.0382,6.0381,6.0381,0,5.9643,5.9679,5.9746,5.9822,5.988,5.9871,5.9931,5.998,6.0055,6.0108,6.017,6.0261,6.0336,6.038,6.0455,6.0501,6.0502,6.052,6.0518,6.0526,6.0408,6.0385,6.0519,6.0519,6.0519,6.0519,6.0519,6.0519,5.9724,5.9818,5.9836,5.9953,5.9989,6.0072,6.0108,6.0156,6.0199,6.0301,6.0363,6.0391,6.0441,6.0521,6.0589,6.06,6.0629,6.065,6.066,6.0548,6.0534,6.0521,6.05,6.0656,6.0656,6.0773,6.0775,6.0775]}]]